When you browse on this site, cookies collect data to enhance your experience and personalize the content and advertising you see.
Visit our Privacy Policy to learn more. By continuing to use the site, you agree to this use of cookies and data.
  • In United Kingdom
  • List of Countries
  • For 7 days
  • Water Temperature
  • Weather Map
  • Weather Widgets
  • user-avatar
    Login

    Hourly Weather Kuntaur

    Today, 4 June, Thursday

    Time Temperature Precipitation Wind Pressure Humidity
    00:00 +32°C° 0 mm 5 mps 757 mmHg 33%
    01:00 +30°C° 0 mm 4 mps 756 mmHg 35%
    02:00 +29°C° 0 mm 4 mps 756 mmHg 37%
    03:00 +29°C° 0 mm 3 mps 756 mmHg 38%
    04:00 +28°C° 0 mm 3 mps 756 mmHg 39%
    05:00 +28°C° 0 mm 3 mps 757 mmHg 39%
    06:00 +30°C° 0 mm 3 mps 757 mmHg 34%
    07:00 +32°C° 0 mm 4 mps 757 mmHg 30%
    08:00 +34°C° 0 mm 4 mps 757 mmHg 25%
    09:00 +37°C° 0 mm 4 mps 757 mmHg 22%
    10:00 +41°C° 0 mm 5 mps 757 mmHg 19%
    11:00 +43°C° 0 mm 4 mps 756 mmHg 16%
    12:00 +44°C° 0 mm 4 mps 756 mmHg 16%
    13:00 +45°C° 0 mm 4 mps 755 mmHg 15%
    14:00 +47°C° 0 mm 3 mps 754 mmHg 15%
    15:00 +47°C° 0 mm 3 mps 753 mmHg 14%
    16:00 +47°C° 0 mm 2 mps 753 mmHg 14%
    17:00 +47°C° 0 mm 2 mps 753 mmHg 13%
    18:00 +45°C° 0 mm 3 mps 753 mmHg 15%
    19:00 +43°C° 0 mm 3 mps 754 mmHg 18%
    20:00 +41°C° 0 mm 4 mps 755 mmHg 20%
    21:00 +38°C° 0 mm 4 mps 756 mmHg 28%
    22:00 +35°C° 0 mm 4 mps 756 mmHg 35%
    23:00 +33°C° 0 mm 4 mps 757 mmHg 43%

    Tomorrow, 5 June, Friday

    Time Temperature Precipitation Wind Pressure Humidity
    00:00 +32°C° 0 mm 4 mps 757 mmHg 44%
    01:00 +32°C° 0 mm 4 mps 757 mmHg 45%
    02:00 +30°C° 0 mm 4 mps 757 mmHg 46%
    03:00 +29°C° 0 mm 3 mps 757 mmHg 49%
    04:00 +28°C° 0 mm 3 mps 757 mmHg 52%
    05:00 +28°C° 0 mm 3 mps 757 mmHg 54%
    06:00 +29°C° 0 mm 3 mps 757 mmHg 49%
    07:00 +30°C° 0 mm 2 mps 758 mmHg 44%
    08:00 +32°C° 0 mm 2 mps 758 mmHg 39%
    09:00 +35°C° 0 mm 2 mps 758 mmHg 33%
    10:00 +37°C° 0 mm 1 mps 757 mmHg 28%
    11:00 +41°C° 0 mm 1 mps 757 mmHg 22%
    12:00 +42°C° 0 mm 1 mps 756 mmHg 21%
    13:00 +43°C° 0 mm 1 mps 755 mmHg 19%
    14:00 +44°C° 0 mm 1 mps 755 mmHg 18%
    15:00 +45°C° 0 mm 2 mps 755 mmHg 17%
    16:00 +45°C° 0 mm 2 mps 754 mmHg 17%
    17:00 +45°C° 0 mm 2 mps 754 mmHg 17%
    18:00 +43°C° 0 mm 3 mps 755 mmHg 22%
    19:00 +40°C° 0 mm 4 mps 756 mmHg 28%
    20:00 +37°C° 0 mm 5 mps 757 mmHg 33%
    21:00 +35°C° 0 mm 5 mps 757 mmHg 37%
    22:00 +34°C° 0 mm 4 mps 758 mmHg 40%
    23:00 +33°C° 0 mm 4 mps 759 mmHg 44%

    Day after tomorrow, 6 June, Saturday

    Time Temperature Precipitation Wind Pressure Humidity
    00:00 +31°C° 0 mm 3 mps 758 mmHg 45%
    01:00 +30°C° 0 mm 3 mps 758 mmHg 47%
    02:00 +30°C° 0 mm 2 mps 758 mmHg 48%
    03:00 +29°C° 0 mm 2 mps 758 mmHg 48%
    04:00 +29°C° 0 mm 3 mps 758 mmHg 49%
    05:00 +29°C° 0 mm 3 mps 758 mmHg 49%
    06:00 +30°C° 0 mm 3 mps 758 mmHg 45%
    07:00 +31°C° 0 mm 2 mps 758 mmHg 41%
    08:00 +32°C° 0 mm 2 mps 759 mmHg 37%
    09:00 +36°C° 0 mm 3 mps 758 mmHg 32%
    10:00 +39°C° 0 mm 3 mps 758 mmHg 28%
    11:00 +42°C° 0 mm 3 mps 758 mmHg 23%
    12:00 +44°C° 0 mm 3 mps 757 mmHg 21%
    13:00 +46°C° 0 mm 2 mps 756 mmHg 18%
    14:00 +48°C° 0 mm 2 mps 755 mmHg 16%
    15:00 +46°C° 0.2 mm 2 mps 754 mmHg 18%
    16:00 +45°C° 0.2 mm 2 mps 754 mmHg 19%
    17:00 +43°C° 0.2 mm 2 mps 754 mmHg 21%
    18:00 +41°C° 0.2 mm 2 mps 755 mmHg 23%
    19:00 +40°C° 0.2 mm 2 mps 755 mmHg 26%
    20:00 +38°C° 0.2 mm 2 mps 756 mmHg 28%
    21:00 +37°C° 0.1 mm 2 mps 756 mmHg 34%
    22:00 +36°C° 0.1 mm 3 mps 757 mmHg 39%
    23:00 +34°C° 0.1 mm 3 mps 757 mmHg 44%

    7 June, Sunday

    Time Temperature Precipitation Wind Pressure Humidity
    00:00 +33°C° 0.3 mm 4 mps 757 mmHg 49%
    01:00 +32°C° 0.3 mm 4 mps 757 mmHg 54%
    02:00 +30°C° 0.3 mm 4 mps 757 mmHg 59%
    03:00 +30°C° 0.1 mm 4 mps 757 mmHg 59%
    04:00 +30°C° 0.1 mm 3 mps 757 mmHg 60%
    05:00 +30°C° 0.1 mm 3 mps 757 mmHg 60%
    06:00 +30°C° 0.1 mm 3 mps 758 mmHg 59%
    07:00 +31°C° 0.1 mm 3 mps 758 mmHg 57%
    08:00 +33°C° 0.1 mm 3 mps 758 mmHg 55%
    09:00 +34°C° 0 mm 3 mps 758 mmHg 49%
    10:00 +36°C° 0 mm 3 mps 758 mmHg 42%
    11:00 +38°C° 0 mm 4 mps 758 mmHg 36%
    12:00 +40°C° 0 mm 4 mps 757 mmHg 34%
    13:00 +41°C° 0 mm 4 mps 756 mmHg 31%
    14:00 +42°C° 0 mm 4 mps 755 mmHg 29%
    15:00 +42°C° 0 mm 4 mps 755 mmHg 28%
    16:00 +42°C° 0 mm 4 mps 755 mmHg 28%
    17:00 +43°C° 0 mm 4 mps 755 mmHg 27%
    18:00 +41°C° 0 mm 4 mps 755 mmHg 30%
    19:00 +40°C° 0 mm 4 mps 756 mmHg 33%
    20:00 +37°C° 0 mm 5 mps 757 mmHg 37%
    21:00 +35°C° 0 mm 5 mps 757 mmHg 42%
    22:00 +34°C° 0 mm 5 mps 757 mmHg 48%
    23:00 +32°C° 0 mm 6 mps 758 mmHg 54%

    8 June, Monday

    Time Temperature Precipitation Wind Pressure Humidity
    00:00 +32°C° 0 mm 5 mps 758 mmHg 55%
    01:00 +30°C° 0 mm 5 mps 757 mmHg 57%
    02:00 +30°C° 0 mm 4 mps 757 mmHg 59%
    03:00 +29°C° 0 mm 4 mps 757 mmHg 61%
    04:00 +29°C° 0 mm 4 mps 757 mmHg 63%
    05:00 +28°C° 0 mm 3 mps 757 mmHg 65%
    06:00 +29°C° 0.1 mm 4 mps 757 mmHg 62%
    07:00 +30°C° 0.1 mm 4 mps 758 mmHg 60%
    08:00 +30°C° 0.1 mm 4 mps 758 mmHg 57%
    09:00 +33°C° 0 mm 4 mps 758 mmHg 51%
    10:00 +35°C° 0 mm 4 mps 758 mmHg 44%
    11:00 +37°C° 0 mm 4 mps 758 mmHg 37%
    12:00 +40°C° 0 mm 4 mps 757 mmHg 33%
    13:00 +40°C° 0 mm 3 mps 756 mmHg 30%
    14:00 +43°C° 0 mm 3 mps 755 mmHg 27%
    15:00 +43°C° 0 mm 3 mps 755 mmHg 26%
    16:00 +43°C° 0 mm 3 mps 755 mmHg 26%
    17:00 +43°C° 0 mm 4 mps 754 mmHg 26%
    18:00 +41°C° 0 mm 4 mps 755 mmHg 29%
    19:00 +39°C° 0 mm 5 mps 756 mmHg 32%
    20:00 +37°C° 0 mm 5 mps 756 mmHg 35%
    21:00 +35°C° 0 mm 5 mps 757 mmHg 40%
    22:00 +33°C° 0 mm 5 mps 757 mmHg 44%
    23:00 +32°C° 0 mm 5 mps 757 mmHg 49%

    9 June, Tuesday

    Time Temperature Precipitation Wind Pressure Humidity
    00:00 +30°C° 0 mm 5 mps 757 mmHg 52%
    01:00 +29°C° 0 mm 4 mps 757 mmHg 55%
    02:00 +29°C° 0 mm 4 mps 757 mmHg 57%
    03:00 +28°C° 0 mm 4 mps 757 mmHg 60%
    04:00 +28°C° 0 mm 3 mps 757 mmHg 62%
    05:00 +28°C° 0 mm 3 mps 757 mmHg 64%
    06:00 +29°C° 0 mm 3 mps 757 mmHg 60%
    07:00 +30°C° 0 mm 3 mps 757 mmHg 56%
    08:00 +31°C° 0 mm 3 mps 757 mmHg 52%
    09:00 +34°C° 0 mm 3 mps 757 mmHg 45%
    10:00 +36°C° 0 mm 3 mps 757 mmHg 38%
    11:00 +39°C° 0 mm 3 mps 757 mmHg 31%
    12:00 +40°C° 0 mm 3 mps 756 mmHg 29%
    13:00 +42°C° 0 mm 3 mps 755 mmHg 27%
    14:00 +42°C° 0 mm 2 mps 755 mmHg 25%
    15:00 +42°C° 0 mm 2 mps 754 mmHg 24%
    16:00 +42°C° 0 mm 2 mps 754 mmHg 24%
    17:00 +42°C° 0 mm 2 mps 754 mmHg 24%
    18:00 +42°C° 0 mm 3 mps 754 mmHg 27%
    19:00 +40°C° 0 mm 4 mps 755 mmHg 31%
    20:00 +37°C° 0 mm 5 mps 755 mmHg 34%
    21:00 +36°C° 0 mm 5 mps 756 mmHg 40%
    22:00 +34°C° 0 mm 5 mps 756 mmHg 46%
    23:00 +32°C° 0 mm 5 mps 757 mmHg 51%
    Show more